When you browse on this site, cookies collect data to enhance your experience and personalize the content and advertising you see.
Visit our Privacy Policy to learn more. By continuing to use the site, you agree to this use of cookies and data.
  • In United Kingdom
  • List of Countries
  • For 7 days
  • Water Temperature
  • Weather Map
  • Weather Widgets
  • user-avatar
    Login

    Hourly Weather Zareche (Signevichi)

    Today, 19 August, Monday

    Time Temperature Precipitation Wind Pressure Humidity
    00:00 +18°C° 0 mm 3 mps 747 mmHg 86%
    01:00 +18°C° 0 mm 3 mps 747 mmHg 87%
    02:00 +18°C° 0 mm 3 mps 747 mmHg 88%
    03:00 +18°C° 0 mm 3 mps 747 mmHg 89%
    04:00 +18°C° 0 mm 3 mps 747 mmHg 89%
    05:00 +18°C° 0 mm 3 mps 747 mmHg 89%
    06:00 +19°C° 0 mm 3 mps 747 mmHg 86%
    07:00 +20°C° 0 mm 3 mps 747 mmHg 82%
    08:00 +21°C° 0 mm 4 mps 748 mmHg 78%
    09:00 +23°C° 0 mm 4 mps 748 mmHg 75%
    10:00 +26°C° 0 mm 4 mps 748 mmHg 72%
    11:00 +27°C° 0 mm 4 mps 748 mmHg 69%
    12:00 +28°C° 0 mm 4 mps 748 mmHg 66%
    13:00 +29°C° 0 mm 4 mps 748 mmHg 63%
    14:00 +30°C° 0 mm 5 mps 748 mmHg 60%
    15:00 +30°C° 0.3 mm 4 mps 748 mmHg 62%
    16:00 +30°C° 0.3 mm 3 mps 748 mmHg 63%
    17:00 +31°C° 0.3 mm 2 mps 748 mmHg 65%
    18:00 +29°C° 0.2 mm 2 mps 748 mmHg 70%
    19:00 +27°C° 0.2 mm 2 mps 749 mmHg 76%
    20:00 +25°C° 0.2 mm 2 mps 749 mmHg 82%
    21:00 +24°C° 0.7 mm 3 mps 749 mmHg 84%
    22:00 +22°C° 0.7 mm 3 mps 749 mmHg 87%
    23:00 +22°C° 0.7 mm 3 mps 749 mmHg 90%

    Tomorrow, 20 August, Tuesday

    Time Temperature Precipitation Wind Pressure Humidity
    00:00 +21°C° 1.1 mm 2 mps 749 mmHg 92%
    01:00 +20°C° 1.1 mm 2 mps 750 mmHg 94%
    02:00 +21°C° 1.1 mm 1 mps 750 mmHg 96%
    03:00 +19°C° 0.2 mm 2 mps 750 mmHg 96%
    04:00 +19°C° 0.2 mm 2 mps 750 mmHg 97%
    05:00 +19°C° 0.2 mm 3 mps 751 mmHg 97%
    06:00 +20°C° 0 mm 3 mps 751 mmHg 95%
    07:00 +20°C° 0 mm 3 mps 751 mmHg 93%
    08:00 +21°C° 0 mm 3 mps 752 mmHg 91%
    09:00 +22°C° 0 mm 3 mps 752 mmHg 87%
    10:00 +22°C° 0 mm 3 mps 752 mmHg 82%
    11:00 +24°C° 0 mm 3 mps 752 mmHg 77%
    12:00 +25°C° 0 mm 3 mps 752 mmHg 72%
    13:00 +26°C° 0 mm 2 mps 753 mmHg 67%
    14:00 +27°C° 0 mm 2 mps 753 mmHg 62%
    15:00 +27°C° 0 mm 2 mps 753 mmHg 63%
    16:00 +26°C° 0 mm 2 mps 753 mmHg 64%
    17:00 +26°C° 0 mm 2 mps 753 mmHg 66%
    18:00 +24°C° 0 mm 2 mps 753 mmHg 71%
    19:00 +23°C° 0 mm 2 mps 753 mmHg 76%
    20:00 +20°C° 0 mm 2 mps 753 mmHg 82%
    21:00 +20°C° 0 mm 2 mps 753 mmHg 82%
    22:00 +19°C° 0 mm 2 mps 753 mmHg 83%
    23:00 +19°C° 0 mm 2 mps 753 mmHg 84%

    Day after tomorrow, 21 August, Wednesday

    Time Temperature Precipitation Wind Pressure Humidity
    00:00 +19°C° 0 mm 2 mps 753 mmHg 86%
    01:00 +18°C° 0 mm 2 mps 753 mmHg 87%
    02:00 +18°C° 0 mm 2 mps 753 mmHg 89%
    03:00 +18°C° 0 mm 2 mps 753 mmHg 91%
    04:00 +18°C° 0 mm 2 mps 752 mmHg 93%
    05:00 +18°C° 0 mm 2 mps 752 mmHg 95%
    06:00 +19°C° 0.1 mm 3 mps 752 mmHg 92%
    07:00 +20°C° 0.1 mm 3 mps 752 mmHg 90%
    08:00 +21°C° 0.1 mm 3 mps 752 mmHg 87%
    09:00 +22°C° 0 mm 3 mps 752 mmHg 84%
    10:00 +24°C° 0 mm 3 mps 752 mmHg 81%
    11:00 +26°C° 0 mm 3 mps 752 mmHg 79%
    12:00 +27°C° 0.5 mm 3 mps 752 mmHg 74%
    13:00 +28°C° 0.5 mm 2 mps 752 mmHg 69%
    14:00 +29°C° 0.5 mm 2 mps 751 mmHg 64%
    15:00 +28°C° 1 mm 2 mps 751 mmHg 70%
    16:00 +27°C° 1 mm 3 mps 751 mmHg 75%
    17:00 +26°C° 1 mm 3 mps 751 mmHg 81%
    18:00 +24°C° 0.2 mm 3 mps 752 mmHg 86%
    19:00 +22°C° 0.2 mm 4 mps 752 mmHg 90%
    20:00 +20°C° 0.2 mm 4 mps 752 mmHg 95%
    21:00 +19°C° 0 mm 4 mps 752 mmHg 95%
    22:00 +19°C° 0 mm 4 mps 752 mmHg 95%
    23:00 +18°C° 0 mm 4 mps 752 mmHg 96%

    22 August, Thursday

    Time Temperature Precipitation Wind Pressure Humidity
    00:00 +18°C° 0 mm 4 mps 753 mmHg 95%
    01:00 +18°C° 0 mm 4 mps 753 mmHg 95%
    02:00 +18°C° 0 mm 4 mps 753 mmHg 94%
    03:00 +18°C° 0 mm 4 mps 753 mmHg 94%
    04:00 +17°C° 0 mm 4 mps 753 mmHg 93%
    05:00 +17°C° 0 mm 4 mps 753 mmHg 92%
    06:00 +17°C° 0 mm 4 mps 753 mmHg 92%
    07:00 +17°C° 0 mm 4 mps 753 mmHg 91%
    08:00 +18°C° 0 mm 4 mps 754 mmHg 90%
    09:00 +18°C° 0 mm 3 mps 754 mmHg 88%
    10:00 +19°C° 0 mm 3 mps 754 mmHg 86%
    11:00 +20°C° 0 mm 3 mps 754 mmHg 84%
    12:00 +20°C° 0 mm 3 mps 754 mmHg 82%
    13:00 +21°C° 0 mm 3 mps 754 mmHg 80%
    14:00 +21°C° 0 mm 3 mps 754 mmHg 78%
    15:00 +22°C° 0 mm 3 mps 754 mmHg 78%
    16:00 +22°C° 0 mm 3 mps 754 mmHg 79%
    17:00 +22°C° 0 mm 3 mps 754 mmHg 79%
    18:00 +21°C° 0 mm 2 mps 754 mmHg 81%
    19:00 +20°C° 0 mm 2 mps 754 mmHg 83%
    20:00 +20°C° 0 mm 2 mps 754 mmHg 85%
    21:00 +19°C° 0.1 mm 2 mps 754 mmHg 87%
    22:00 +19°C° 0.1 mm 2 mps 754 mmHg 89%
    23:00 +18°C° 0.1 mm 2 mps 754 mmHg 91%

    23 August, Friday

    Time Temperature Precipitation Wind Pressure Humidity
    00:00 +18°C° 0.3 mm 2 mps 754 mmHg 92%
    01:00 +17°C° 0.3 mm 2 mps 754 mmHg 93%
    02:00 +17°C° 0.3 mm 2 mps 755 mmHg 94%
    03:00 +16°C° 0 mm 2 mps 755 mmHg 94%
    04:00 +16°C° 0 mm 2 mps 755 mmHg 94%
    05:00 +16°C° 0 mm 2 mps 755 mmHg 94%
    06:00 +17°C° 0 mm 3 mps 755 mmHg 91%
    07:00 +17°C° 0 mm 3 mps 755 mmHg 89%
    08:00 +18°C° 0 mm 3 mps 756 mmHg 86%
    09:00 +20°C° 0 mm 3 mps 756 mmHg 79%
    10:00 +21°C° 0 mm 3 mps 756 mmHg 73%
    11:00 +22°C° 0 mm 3 mps 756 mmHg 66%
    12:00 +24°C° 0 mm 3 mps 756 mmHg 64%
    13:00 +24°C° 0 mm 3 mps 756 mmHg 62%
    14:00 +25°C° 0 mm 3 mps 756 mmHg 59%
    15:00 +25°C° 0 mm 4 mps 756 mmHg 61%
    16:00 +23°C° 0 mm 4 mps 756 mmHg 63%
    17:00 +23°C° 0 mm 4 mps 756 mmHg 64%
    18:00 +21°C° 0 mm 3 mps 756 mmHg 68%
    19:00 +19°C° 0 mm 3 mps 756 mmHg 71%
    20:00 +17°C° 0 mm 3 mps 756 mmHg 75%
    21:00 +17°C° 0 mm 3 mps 756 mmHg 76%
    22:00 +16°C° 0 mm 3 mps 757 mmHg 78%
    23:00 +14°C° 0 mm 3 mps 757 mmHg 79%

    24 August, Saturday

    Time Temperature Precipitation Wind Pressure Humidity
    00:00 +14°C° 0 mm 3 mps 757 mmHg 81%
    01:00 +13°C° 0 mm 3 mps 757 mmHg 82%
    02:00 +13°C° 0 mm 3 mps 757 mmHg 84%
    03:00 +13°C° 0 mm 3 mps 757 mmHg 87%
    04:00 +12°C° 0 mm 3 mps 757 mmHg 90%
    05:00 +12°C° 0 mm 3 mps 757 mmHg 93%
    06:00 +13°C° 0 mm 3 mps 757 mmHg 88%
    07:00 +16°C° 0 mm 3 mps 757 mmHg 84%
    08:00 +17°C° 0 mm 3 mps 757 mmHg 80%
    09:00 +19°C° 0 mm 4 mps 757 mmHg 74%
    10:00 +20°C° 0 mm 4 mps 757 mmHg 67%
    11:00 +22°C° 0 mm 4 mps 757 mmHg 61%
    12:00 +22°C° 0 mm 4 mps 757 mmHg 59%
    13:00 +23°C° 0 mm 4 mps 757 mmHg 57%
    14:00 +23°C° 0 mm 4 mps 757 mmHg 55%
    15:00 +23°C° 0 mm 4 mps 756 mmHg 58%
    16:00 +23°C° 0 mm 4 mps 756 mmHg 60%
    17:00 +22°C° 0 mm 4 mps 756 mmHg 63%
    18:00 +21°C° 0 mm 4 mps 756 mmHg 68%
    19:00 +19°C° 0 mm 4 mps 756 mmHg 74%
    20:00 +17°C° 0 mm 3 mps 756 mmHg 79%
    21:00 +17°C° 0 mm 4 mps 756 mmHg 79%
    22:00 +15°C° 0 mm 4 mps 756 mmHg 80%
    23:00 +15°C° 0 mm 4 mps 756 mmHg 80%
    Show more